NUSANTARA SATU

Last updated on Nov. 17, 2019, 4:19 a.m. UTC

1 44048U 19009A   19319.87689282 -.00000223  00000-0  00000+0 0  9999
2 44048   0.0155 326.0735 0002189 276.6014 273.7129  1.00270750  2651
UTC
Height (km)
Latitude
Longitude
Inclination
Orbital Period
UTC large
Height (km)
Speed (km/s)
/
Latitude / Longitude
Inclination (degrees)
Orbital Period (minutes)
Azimuth
Elevation
Range (km)
Doppler Factor
iOS Compass Heading
iOS Angle

Next 30 passes for location: Hong Kong

Rise time Rise Azimuth (degrees) Set time Set Azimuth (degrees) Duration Max altitude (degrees)

No matching passes for this satellites